Preview of NWS' New Version of Forecast
This preview is not operational and should not be used for support decisions.

Regional Weather Roundup (RWR)

Issued by Gray - Portland, ME (GYX)

                            
073 
ASUS41 KGYX 192210
RWRGYX
WEATHER ROUNDUP FOR MAINE AND NEW HAMPSHIRE
NATIONAL WEATHER SERVICE GRAY ME
600 PM EDT THU APR 19 2018

MEZ002-005-006-010-012-015-018-020-021-024-026-027-029-192300-
MAINE
  
CITY           SKY/WX    TMP DP  RH WIND       PRES   REMARKS
PORTLAND       LGT RAIN  42  37  82 VRB3      29.70R                  
SANFORD        PTSUNNY   41  36  82 W9        29.70R                  
BAR HARBOR     CLOUDY    41  35  79 E3        29.66F                  
WISCASSET      LGT RAIN  43  37  79 SW5       29.70R                  
ROCKLAND       CLOUDY    42  36  79 CALM      29.68R                  
FRYEBURG       LGT RAIN  40  35  83 N7        29.71R                  
LEWISTONAUBURN LGT RAIN  43  31  62 W10       29.69R                  
AUGUSTA        LGT RAIN  44  28  53 N17       29.68R                  
WATERVILLE     CLOUDY    44  27  51 NW10      29.65R                  
BANGOR         CLOUDY    43  35  73 SW3       29.67S                  
GREENVILLE       N/A     36  28  73 NW8       29.64R                  
MILLINOCKET    CLOUDY    45  25  45 CALM      29.67S                  
HOULTON        CLOUDY    44  30  57 CALM      29.65R                  
PRESQUE ISLE   CLOUDY    44  28  53 CALM      29.67R                  
FRENCHVILLE    CLOUDY    43  28  55 N7        29.66R                  
CARIBOU        CLOUDY    41  30  65 NW7       29.65R                  
$$

NHZ002-005-008-009-011-012-014-192300-
NEW HAMPSHIRE
  
CITY           SKY/WX    TMP DP  RH WIND       PRES   REMARKS
PORTSMOUTH     CLOUDY    43  37  78 NW9       29.68S                  
ROCHESTER      CLOUDY    42  35  76 NW10      29.69R                  
NASHUA         CLOUDY    44  37  76 NW13      29.72R                  
MANCHESTER     PTSUNNY   47  32  56 NW10      29.70R                  
CONCORD        PTSUNNY   45  30  55 N12       29.71R                  
LACONIA        CLOUDY    41  30  65 NW12      29.71R                  
PLYMOUTH       PTSUNNY   41  31  67 NW9       29.72R                  
BERLIN         CLOUDY    39  28  64 NW7       29.70R                  
WHITEFIELD     CLOUDY    39  25  57 NW12      29.71R                  
JAFFREY        CLOUDY    40  33  76 VRB7      29.71R                  
KEENE          CLOUDY    42  32  67 N9        29.73R                  
LEBANON        CLOUDY    42  27  55 N9G18     29.74R                  
MT WASHINGTON  SNOW      19  19 100 W31         N/A  VSB 1/16WCI   0  
$$

VTZ005-007-008-192300-
VERMONT
  
CITY           SKY/WX    TMP DP  RH WIND       PRES   REMARKS
ST JOHNSBURY     N/A     37  32  82 MISG      29.73R                  
MONTPELIER     LGT SNOW  33  30  88 NW16G22   29.79R FOG              
BURLINGTON     CLOUDY    40  30  67 N12       29.80R                  
$$

MAZ007-012-024-CTZ003-RIZ002-NYZ038-NYZ072-192300-
SOUTHERN NEW ENGLAND AND NY
  
CITY           SKY/WX    TMP DP  RH WIND       PRES   REMARKS
BOSTON         PTSUNNY   44  38  79 W9        29.71S                  
WORCESTER      PTSUNNY   38  34  85 NW12      29.70S                  
NANTUCKET      CLOUDY    40  39  97 N10       29.72R                  
PROVIDENCE     PTSUNNY   45  40  82 NW9       29.73R                  
HARTFORD       PTSUNNY   44  32  62 NW15G22   29.77R                  
ALBANY         CLOUDY    41  25  53 W21G31    29.82R                  
NEW YORK CITY  PTSUNNY   46  30  53 NW25G33   29.82R                  
$$

ANZ081-ANZ082-ANZ150-NHZ014-MEZ023>029-192300-
COASTAL MARINE OBSERVATIONS
  
STATION/POSITION TIME  TEMP    WIND        PRES    WAVE
                       AIR SEA DIR/SP/G            HT/PER
                 (UTC) (F)     (DEG/KT/KT) (MB)    (FT/S)
MOUNT DESERT ROC 2200   37     270/  4/  5 1005.2F
MATINICUS ROCK   2200   38     260/  8/  9 1004.6R
ISLE OF SHOALS   2200   42     250/  8/  8 1005.5R
JEFFREYS LEDGE   2136      41                N/A     2/ 8
CASHES LEDGE BUO 2150   36 40              1005.3R   3/ 9
$$

.............KEY..............
   WCI - WIND CHILL
   TC  - TEMPERATURE IN CELSIUS
   VSB - VISIBILITY IN MILES
   HX  - HEAT INDEX
   FAIR- INDICATES FEW OR NO CLOUDS BELOW 12,000 FT, WITH NO 
         SIGNIFICANT WEATHER AND/OR OBSTRUCTIONS TO VISIBILITY.